Wetterdaten: Mittwoch, 29.10.2014
Datum Zeit Temp. A. Feuchte A. Luftdruck Regen Wind Richtung Richtung Sonnenschein ET UV Solar Taupunkt Windchill Windben Empfang
29.10.2014 00:00 2,0 C 82 % 1019,1 hPa 0,0 l/m 0,0 km/h (0 Bft) SW 224 0 min 0,000 mm 0,0 UV-I 0 W/m -0,7 C 2,0 C 0,0 km/h (0 Bft) 0,00 %
29.10.2014 00:15 2,2 C 82 % 1019,0 hPa 0,0 l/m 0,0 km/h (0 Bft) S 173 0 min 0,000 mm 0,0 UV-I 0 W/m -0,5 C 2,2 C 0,0 km/h (0 Bft) 0,00 %
29.10.2014 00:30 2,4 C 82 % 1019,0 hPa 0,0 l/m 0,0 km/h (0 Bft) S-SW 195 0 min 0,000 mm 0,0 UV-I 0 W/m -0,4 C 2,4 C 0,0 km/h (0 Bft) 0,00 %
29.10.2014 01:00 2,8 C 86 % 1018,9 hPa 0,0 l/m 0,0 km/h (0 Bft) S-SW 195 0 min 0,000 mm 0,0 UV-I 0 W/m 0,7 C 2,8 C 0,0 km/h (0 Bft) 0,00 %
29.10.2014 02:15 3,1 C 87 % 1019,0 hPa 0,0 l/m 0,0 km/h (0 Bft) S-SW 212 0 min 0,000 mm 0,0 UV-I 0 W/m 1,2 C 3,1 C 0,0 km/h (0 Bft) 0,00 %
29.10.2014 02:30 3,1 C 87 % 1018,7 hPa 0,0 l/m 0,0 km/h (0 Bft) S 174 0 min 0,000 mm 0,0 UV-I 0 W/m 1,2 C 3,1 C 0,0 km/h (0 Bft) 0,00 %
29.10.2014 03:15 3,5 C 86 % 1018,2 hPa 0,0 l/m 0,0 km/h (0 Bft) SW 229 0 min 0,000 mm 0,0 UV-I 0 W/m 1,4 C 3,5 C 0,0 km/h (0 Bft) 0,00 %
29.10.2014 03:30 3,5 C 86 % 1018,3 hPa 0,0 l/m 0,0 km/h (0 Bft) W-SW 250 0 min 0,000 mm 0,0 UV-I 0 W/m 1,4 C 3,5 C 0,0 km/h (0 Bft) 0,00 %
29.10.2014 04:00 3,8 C 86 % 1018,1 hPa 0,0 l/m 0,0 km/h (0 Bft) W-SW 250 0 min 0,000 mm 0,0 UV-I 0 W/m 1,7 C 3,8 C 0,0 km/h (0 Bft) 0,00 %
29.10.2014 04:15 3,9 C 86 % 1018,2 hPa 0,0 l/m 0,0 km/h (0 Bft) W-SW 250 0 min 0,000 mm 0,0 UV-I 0 W/m 1,8 C 3,9 C 0,0 km/h (0 Bft) 0,00 %
29.10.2014 04:30 3,8 C 86 % 1018,1 hPa 0,0 l/m 0,0 km/h (0 Bft) S-SW 211 0 min 0,000 mm 0,0 UV-I 0 W/m 1,7 C 3,8 C 0,0 km/h (0 Bft) 0,00 %
29.10.2014 04:45 3,7 C 86 % 1018,1 hPa 0,0 l/m 0,0 km/h (0 Bft) O-SO 121 0 min 0,000 mm 0,0 UV-I 0 W/m 1,6 C 3,7 C 0,0 km/h (0 Bft) 0,00 %
29.10.2014 05:00 3,7 C 86 % 1017,9 hPa 0,0 l/m 0,0 km/h (0 Bft) S 175 0 min 0,000 mm 0,0 UV-I 0 W/m 1,6 C 3,7 C 0,0 km/h (0 Bft) 0,00 %
29.10.2014 05:15 3,6 C 86 % 1017,9 hPa 0,0 l/m 0,0 km/h (0 Bft) O-NO 66 0 min 0,000 mm 0,0 UV-I 0 W/m 1,5 C 3,6 C 0,0 km/h (0 Bft) 0,00 %
29.10.2014 05:30 3,6 C 86 % 1018,2 hPa 0,0 l/m 0,0 km/h (0 Bft) S-SW 204 0 min 0,000 mm 0,0 UV-I 0 W/m 1,5 C 3,6 C 0,0 km/h (0 Bft) 0,00 %
29.10.2014 05:45 3,7 C 86 % 1018,0 hPa 0,0 l/m 0,0 km/h (0 Bft) S-SW 210 0 min 0,000 mm 0,0 UV-I 0 W/m 1,6 C 3,7 C 0,0 km/h (0 Bft) 0,00 %
29.10.2014 06:00 3,7 C 86 % 1018,1 hPa 0,0 l/m 0,0 km/h (0 Bft) SW 235 0 min 0,000 mm 0,0 UV-I 0 W/m 1,6 C 3,7 C 0,0 km/h (0 Bft) 0,00 %
29.10.2014 06:15 3,6 C 86 % 1018,4 hPa 0,0 l/m 0,0 km/h (0 Bft) SW 235 0 min 0,000 mm 0,0 UV-I 0 W/m 1,5 C 3,6 C 0,0 km/h (0 Bft) 0,00 %
29.10.2014 06:30 3,4 C 87 % 1018,7 hPa 0,0 l/m 0,0 km/h (0 Bft) SW 234 0 min 0,000 mm 0,0 UV-I 0 W/m 1,4 C 3,4 C 0,0 km/h (0 Bft) 0,00 %
29.10.2014 06:45 3,1 C 87 % 1018,6 hPa 0,0 l/m 0,0 km/h (0 Bft) S-SO 151 0 min 0,000 mm 0,0 UV-I 0 W/m 1,2 C 3,1 C 0,0 km/h (0 Bft) 0,00 %
29.10.2014 07:00 3,2 C 87 % 1018,6 hPa 0,0 l/m 0,0 km/h (0 Bft) S 184 0 min 0,000 mm 0,0 UV-I 9 W/m 1,2 C 3,2 C 0,0 km/h (0 Bft) 0,00 %
29.10.2014 07:15 2,9 C 86 % 1018,9 hPa 0,0 l/m 0,0 km/h (0 Bft) S 185 0 min 0,000 mm 0,0 UV-I 58 W/m 0,8 C 2,9 C 0,0 km/h (0 Bft) 0,00 %
29.10.2014 07:30 2,9 C 86 % 1019,0 hPa 0,0 l/m 0,0 km/h (0 Bft) S-SW 203 0 min 0,000 mm 0,0 UV-I 52 W/m 0,8 C 2,9 C 0,0 km/h (0 Bft) 0,00 %
29.10.2014 07:45 3,7 C 85 % 1018,9 hPa 0,0 l/m 0,0 km/h (0 Bft) S-SW 203 0 min 0,000 mm 1,0 UV-I 107 W/m 1,4 C 3,7 C 0,0 km/h (0 Bft) 0,00 %
29.10.2014 08:00 4,3 C 84 % 1018,6 hPa 0,0 l/m 0,0 km/h (0 Bft) S 181 15 min 0,000 mm 1,0 UV-I 192 W/m 1,8 C 4,3 C 0,0 km/h (0 Bft) 0,00 %
29.10.2014 08:15 4,6 C 82 % 1018,9 hPa 0,0 l/m 0,0 km/h (0 Bft) SW 219 15 min 0,000 mm 1,0 UV-I 205 W/m 1,8 C 4,6 C 0,0 km/h (0 Bft) 0,00 %
29.10.2014 08:30 4,8 C 81 % 1019,1 hPa 0,0 l/m 0,0 km/h (0 Bft) W-SW 255 15 min 0,000 mm 1,0 UV-I 226 W/m 1,8 C 4,8 C 0,0 km/h (0 Bft) 0,00 %
29.10.2014 08:45 5,1 C 80 % 1018,9 hPa 0,0 l/m 0,0 km/h (0 Bft) SW 219 15 min 0,000 mm 1,0 UV-I 294 W/m 1,9 C 5,1 C 0,0 km/h (0 Bft) 0,00 %
29.10.2014 09:00 5,4 C 79 % 1018,9 hPa 0,0 l/m 0,0 km/h (0 Bft) SO 131 15 min 0,000 mm 1,0 UV-I 524 W/m 2,1 C 5,4 C 0,0 km/h (0 Bft) 0,00 %
29.10.2014 09:15 5,8 C 77 % 1019,1 hPa 0,0 l/m 0,0 km/h (0 Bft) W-SW 254 15 min 0,000 mm 1,0 UV-I 365 W/m 2,1 C 5,8 C 0,0 km/h (0 Bft) 0,00 %
29.10.2014 09:30 5,6 C 78 % 1019,4 hPa 0,0 l/m 0,0 km/h (0 Bft) O-SO 105 15 min 0,000 mm 2,0 UV-I 658 W/m 2,1 C 5,6 C 0,0 km/h (0 Bft) 0,00 %
29.10.2014 09:45 6,5 C 73 % 1019,2 hPa 0,0 l/m 0,0 km/h (0 Bft) O-SO 108 15 min 0,000 mm 2,0 UV-I 621 W/m 2,0 C 6,5 C 0,0 km/h (0 Bft) 0,00 %
29.10.2014 10:00 7,0 C 71 % 1019,1 hPa 0,0 l/m 0,0 km/h (0 Bft) N 352 15 min 0,000 mm 2,0 UV-I 617 W/m 2,1 C 7,0 C 0,0 km/h (0 Bft) 0,00 %
29.10.2014 10:15 6,6 C 72 % 1019,0 hPa 0,0 l/m 0,0 km/h (0 Bft) S-SO 147 15 min 0,000 mm 2,0 UV-I 707 W/m 1,9 C 6,6 C 0,0 km/h (0 Bft) 0,00 %
29.10.2014 10:30 6,6 C 73 % 1019,2 hPa 0,0 l/m 0,0 km/h (0 Bft) S 181 15 min 0,000 mm 2,0 UV-I 792 W/m 2,1 C 6,6 C 0,0 km/h (0 Bft) 0,00 %
29.10.2014 10:45 6,9 C 72 % 1018,8 hPa 0,0 l/m 0,0 km/h (0 Bft) O 82 15 min 0,000 mm 2,0 UV-I 795 W/m 2,2 C 6,9 C 0,0 km/h (0 Bft) 0,00 %
29.10.2014 11:00 7,1 C 72 % 1018,9 hPa 0,0 l/m 0,0 km/h (0 Bft) S 180 15 min 0,000 mm 2,0 UV-I 825 W/m 2,4 C 7,1 C 0,0 km/h (0 Bft) 0,00 %
29.10.2014 11:15 7,6 C 72 % 1018,5 hPa 0,0 l/m 0,0 km/h (0 Bft) O 88 15 min 0,000 mm 2,0 UV-I 775 W/m 2,9 C 7,6 C 0,0 km/h (0 Bft) 0,00 %
29.10.2014 11:30 7,4 C 72 % 1018,5 hPa 0,0 l/m 0,4 km/h (0 Bft) S-SO 150 15 min 0,000 mm 2,0 UV-I 766 W/m 2,7 C 7,4 C 4,0 km/h (1 Bft) 0,00 %
29.10.2014 11:45 7,5 C 72 % 1018,5 hPa 0,0 l/m 0,0 km/h (0 Bft) SO 130 15 min 0,000 mm 2,0 UV-I 695 W/m 2,8 C 7,5 C 0,0 km/h (0 Bft) 0,00 %
29.10.2014 12:00 7,9 C 72 % 1018,5 hPa 0,0 l/m 0,0 km/h (0 Bft) SO 133 15 min 0,000 mm 2,0 UV-I 668 W/m 3,2 C 7,9 C 0,0 km/h (0 Bft) 0,00 %
29.10.2014 12:15 7,8 C 72 % 1018,4 hPa 0,0 l/m 7,9 km/h (2 Bft) O-SO 108 15 min 0,000 mm 2,0 UV-I 785 W/m 3,1 C 6,6 C 11,9 km/h (2 Bft) 0,00 %
29.10.2014 12:30 7,6 C 72 % 1018,4 hPa 0,0 l/m 0,0 km/h (0 Bft) O-SO 122 15 min 0,000 mm 2,0 UV-I 662 W/m 2,9 C 7,6 C 0,0 km/h (0 Bft) 0,00 %
29.10.2014 12:45 7,5 C 73 % 1018,6 hPa 0,0 l/m 0,0 km/h (0 Bft) S 186 15 min 0,000 mm 1,0 UV-I 494 W/m 3,0 C 7,5 C 0,0 km/h (0 Bft) 0,00 %
29.10.2014 13:00 7,3 C 73 % 1018,2 hPa 0,0 l/m 4,0 km/h (1 Bft) O 83 15 min 0,000 mm 1,0 UV-I 520 W/m 2,8 C 7,3 C 7,9 km/h (2 Bft) 0,00 %
29.10.2014 13:15 7,4 C 73 % 1018,1 hPa 0,0 l/m 4,0 km/h (1 Bft) O-SO 117 15 min 0,000 mm 2,0 UV-I 672 W/m 2,9 C 7,4 C 4,0 km/h (1 Bft) 0,00 %
29.10.2014 13:30 8,1 C 72 % 1017,9 hPa 0,0 l/m 0,0 km/h (0 Bft) S-SW 194 15 min 0,000 mm 2,0 UV-I 644 W/m 3,4 C 8,1 C 0,0 km/h (0 Bft) 0,00 %
29.10.2014 13:45 8,1 C 72 % 1018,1 hPa 0,0 l/m 0,0 km/h (0 Bft) O-SO 109 15 min 0,000 mm 2,0 UV-I 588 W/m 3,4 C 8,1 C 0,0 km/h (0 Bft) 0,00 %
29.10.2014 14:00 8,0 C 72 % 1017,9 hPa 0,0 l/m 0,7 km/h (0 Bft) SO 124 15 min 0,000 mm 1,0 UV-I 440 W/m 3,3 C 8,0 C 4,0 km/h (1 Bft) 0,00 %
29.10.2014 14:15 8,3 C 71 % 1017,9 hPa 0,0 l/m 0,0 km/h (0 Bft) S 175 15 min 0,000 mm 1,0 UV-I 470 W/m 3,4 C 8,3 C 0,0 km/h (0 Bft) 0,00 %
29.10.2014 14:30 8,4 C 71 % 1017,9 hPa 0,0 l/m 0,0 km/h (0 Bft) S 176 15 min 0,000 mm 1,0 UV-I 439 W/m 3,5 C 8,4 C 0,0 km/h (0 Bft) 0,00 %
29.10.2014 14:45 8,3 C 72 % 1017,9 hPa 0,0 l/m 0,0 km/h (0 Bft) SW 220 15 min 0,000 mm 1,0 UV-I 366 W/m 3,6 C 8,3 C 0,0 km/h (0 Bft) 0,00 %
29.10.2014 15:00 8,4 C 71 % 1017,7 hPa 0,0 l/m 0,0 km/h (0 Bft) S 178 15 min 0,000 mm 1,0 UV-I 303 W/m 3,5 C 8,4 C 0,0 km/h (0 Bft) 0,00 %
29.10.2014 15:15 8,4 C 71 % 1017,7 hPa 0,0 l/m 0,0 km/h (0 Bft) SO 144 15 min 0,000 mm 1,0 UV-I 242 W/m 3,5 C 8,4 C 0,0 km/h (0 Bft) 0,00 %
29.10.2014 15:30 8,2 C 73 % 1017,9 hPa 0,0 l/m 0,0 km/h (0 Bft) S-SW 201 15 min 0,000 mm 1,0 UV-I 192 W/m 3,7 C 8,2 C 0,0 km/h (0 Bft) 0,00 %
29.10.2014 15:45 8,0 C 74 % 1017,8 hPa 0,0 l/m 0,0 km/h (0 Bft) S-SO 163 0 min 0,000 mm 1,0 UV-I 135 W/m 3,7 C 8,0 C 0,0 km/h (0 Bft) 0,00 %
29.10.2014 16:00 7,6 C 75 % 1017,9 hPa 0,0 l/m 0,0 km/h (0 Bft) S 182 0 min 0,000 mm 0,0 UV-I 66 W/m 3,5 C 7,6 C 0,0 km/h (0 Bft) 0,00 %
29.10.2014 16:15 7,4 C 76 % 1017,9 hPa 0,0 l/m 0,0 km/h (0 Bft) SW 225 0 min 0,000 mm 0,0 UV-I 7 W/m 3,5 C 7,4 C 0,0 km/h (0 Bft) 0,00 %
29.10.2014 16:30 7,1 C 77 % 1018,2 hPa 0,0 l/m 0,0 km/h (0 Bft) SO 125 0 min 0,000 mm 0,0 UV-I 0 W/m 3,3 C 7,1 C 0,0 km/h (0 Bft) 0,00 %
29.10.2014 16:45 6,9 C 78 % 1018,0 hPa 0,0 l/m 0,0 km/h (0 Bft) S 174 0 min 0,000 mm 0,0 UV-I 0 W/m 3,3 C 6,9 C 0,0 km/h (0 Bft) 0,00 %
29.10.2014 17:00 6,7 C 78 % 1018,4 hPa 0,0 l/m 0,0 km/h (0 Bft) S 174 0 min 0,000 mm 0,0 UV-I 0 W/m 3,1 C 6,7 C 0,0 km/h (0 Bft) 0,00 %
29.10.2014 17:15 6,4 C 80 % 1018,6 hPa 0,0 l/m 0,0 km/h (0 Bft) S 182 0 min 0,000 mm 0,0 UV-I 0 W/m 3,2 C 6,4 C 0,0 km/h (0 Bft) 0,00 %
29.10.2014 17:30 6,0 C 81 % 1018,6 hPa 0,0 l/m 0,0 km/h (0 Bft) S 173 0 min 0,000 mm 0,0 UV-I 0 W/m 3,0 C 6,0 C 0,0 km/h (0 Bft) 0,00 %
29.10.2014 17:45 5,9 C 81 % 1018,8 hPa 0,0 l/m 0,0 km/h (0 Bft) S 182 0 min 0,000 mm 0,0 UV-I 0 W/m 2,9 C 5,9 C 0,0 km/h (0 Bft) 0,00 %
29.10.2014 18:00 5,8 C 82 % 1018,8 hPa 0,0 l/m 0,0 km/h (0 Bft) S 182 0 min 0,000 mm 0,0 UV-I 0 W/m 3,0 C 5,8 C 0,0 km/h (0 Bft) 0,00 %
29.10.2014 18:15 5,6 C 83 % 1019,0 hPa 0,0 l/m 0,0 km/h (0 Bft) S 182 0 min 0,000 mm 0,0 UV-I 0 W/m 2,9 C 5,6 C 0,0 km/h (0 Bft) 0,00 %
29.10.2014 18:30 5,4 C 83 % 1019,0 hPa 0,0 l/m 0,0 km/h (0 Bft) S 182 0 min 0,000 mm 0,0 UV-I 0 W/m 2,7 C 5,4 C 0,0 km/h (0 Bft) 0,00 %
29.10.2014 18:45 5,3 C 83 % 1019,1 hPa 0,0 l/m 0,0 km/h (0 Bft) S 182 0 min 0,000 mm 0,0 UV-I 0 W/m 2,7 C 5,3 C 0,0 km/h (0 Bft) 0,00 %
29.10.2014 19:00 5,2 C 83 % 1019,1 hPa 0,0 l/m 0,0 km/h (0 Bft) S 182 0 min 0,000 mm 0,0 UV-I 0 W/m 2,6 C 5,2 C 0,0 km/h (0 Bft) 0,00 %
29.10.2014 19:15 4,9 C 83 % 1019,3 hPa 0,0 l/m 0,0 km/h (0 Bft) S 182 0 min 0,000 mm 0,0 UV-I 0 W/m 2,3 C 4,9 C 0,0 km/h (0 Bft) 0,00 %
29.10.2014 19:30 4,8 C 84 % 1019,4 hPa 0,0 l/m 0,0 km/h (0 Bft) S 182 0 min 0,000 mm 0,0 UV-I 0 W/m 2,3 C 4,8 C 0,0 km/h (0 Bft) 0,00 %
29.10.2014 19:45 4,7 C 84 % 1019,4 hPa 0,0 l/m 0,0 km/h (0 Bft) S 182 0 min 0,000 mm 0,0 UV-I 0 W/m 2,2 C 4,7 C 0,0 km/h (0 Bft) 0,00 %
29.10.2014 20:00 4,9 C 84 % 1019,6 hPa 0,0 l/m 0,0 km/h (0 Bft) S 182 0 min 0,000 mm 0,0 UV-I 0 W/m 2,4 C 4,9 C 0,0 km/h (0 Bft) 0,00 %
29.10.2014 20:15 4,9 C 84 % 1019,8 hPa 0,0 l/m 0,0 km/h (0 Bft) S 182 0 min 0,000 mm 0,0 UV-I 0 W/m 2,4 C 4,9 C 0,0 km/h (0 Bft) 0,00 %
29.10.2014 20:30 5,0 C 85 % 1020,0 hPa 0,0 l/m 0,0 km/h (0 Bft) S 182 0 min 0,000 mm 0,0 UV-I 0 W/m 2,7 C 5,0 C 0,0 km/h (0 Bft) 0,00 %
29.10.2014 20:45 5,0 C 85 % 1019,9 hPa 0,0 l/m 0,0 km/h (0 Bft) S-SW 202 0 min 0,000 mm 0,0 UV-I 0 W/m 2,7 C 5,0 C 0,0 km/h (0 Bft) 0,00 %
29.10.2014 21:00 5,0 C 85 % 1020,0 hPa 0,0 l/m 0,0 km/h (0 Bft) S-SW 202 0 min 0,000 mm 0,0 UV-I 0 W/m 2,7 C 5,0 C 0,0 km/h (0 Bft) 0,00 %
29.10.2014 21:15 5,1 C 85 % 1020,2 hPa 0,0 l/m 0,0 km/h (0 Bft) S-SW 202 0 min 0,000 mm 0,0 UV-I 0 W/m 2,8 C 5,1 C 0,0 km/h (0 Bft) 0,00 %
29.10.2014 21:30 5,1 C 85 % 1020,2 hPa 0,0 l/m 0,0 km/h (0 Bft) S-SW 202 0 min 0,000 mm 0,0 UV-I 0 W/m 2,8 C 5,1 C 0,0 km/h (0 Bft) 0,00 %
29.10.2014 21:45 5,2 C 85 % 1020,3 hPa 0,0 l/m 0,0 km/h (0 Bft) S 176 0 min 0,000 mm 0,0 UV-I 0 W/m 2,9 C 5,2 C 0,0 km/h (0 Bft) 0,00 %
29.10.2014 22:00 5,3 C 85 % 1020,2 hPa 0,0 l/m 0,0 km/h (0 Bft) S-SO 162 0 min 0,000 mm 0,0 UV-I 0 W/m 3,0 C 5,3 C 0,0 km/h (0 Bft) 0,00 %
29.10.2014 22:15 5,4 C 85 % 1020,4 hPa 0,0 l/m 0,0 km/h (0 Bft) S 184 0 min 0,000 mm 0,0 UV-I 0 W/m 3,1 C 5,4 C 0,0 km/h (0 Bft) 0,00 %
29.10.2014 22:30 5,3 C 85 % 1020,3 hPa 0,0 l/m 0,0 km/h (0 Bft) S 184 0 min 0,000 mm 0,0 UV-I 0 W/m 3,0 C 5,3 C 0,0 km/h (0 Bft) 0,00 %
29.10.2014 22:45 5,3 C 85 % 1020,6 hPa 0,0 l/m 0,0 km/h (0 Bft) S 184 0 min 0,000 mm 0,0 UV-I 0 W/m 3,0 C 5,3 C 0,0 km/h (0 Bft) 0,00 %
29.10.2014 23:00 5,3 C 85 % 1020,5 hPa 0,0 l/m 0,0 km/h (0 Bft) S 184 0 min 0,000 mm 0,0 UV-I 0 W/m 3,0 C 5,3 C 0,0 km/h (0 Bft) 0,00 %
29.10.2014 23:15 5,2 C 85 % 1020,7 hPa 0,0 l/m 0,0 km/h (0 Bft) S 184 0 min 0,000 mm 0,0 UV-I 0 W/m 2,9 C 5,2 C 0,0 km/h (0 Bft) 0,00 %
29.10.2014 23:30 5,3 C 85 % 1020,7 hPa 0,0 l/m 0,0 km/h (0 Bft) S 184 0 min 0,000 mm 0,0 UV-I 0 W/m 3,0 C 5,3 C 0,0 km/h (0 Bft) 0,00 %
29.10.2014 23:45 5,4 C 85 % 1021,0 hPa 0,0 l/m 0,0 km/h (0 Bft) S 184 0 min 0,000 mm 0,0 UV-I 0 W/m 3,1 C 5,4 C 0,0 km/h (0 Bft) 0,00 %
_ Min-Zeit 00:00 10:00 15:00 - 00:00 - - - - - - 00:00 00:00 00:00 00:00
Minimum _ 2,0 C 71 % 1017,7 hPa - 0,0 km/h (0 Bft) - - - - - - -0,7 C 2,0 C 0,0 km/h (0 Bft) 0,00 %
_ Max-Zeit 14:30 02:15 23:45 00:00 12:15 - - 08:00 00:00 09:30 11:00 15:45 14:30 12:15 00:00
Maximum _ 8,4 C 87 % 1021,0 hPa 0,0 l/m 7,9 km/h
O-SO (2 Bft)
- - 15 min 0,000 mm 2,0 UV-I 825 W/m 3,7 C 8,4 C 11,9 km/h
O-SO (2 Bft)
0,00 %
Durchschnitt _ 5,3 C 81 % 1018,8 hPa #0,0 l/m 0,2 km/h (0 Bft) O-SO - #7:45 h #0,000 mm 1,5 UV-I 447 W/m 2,3 C 5,3 C 0,3 km/h (0 Bft) 0,00 %